Weather in Listopadovka

Russia / Voronezh Oblast     51°24′43″N   41°26′30″E
temp.,
°C
wind,
m/s
gust,
m/s
humid.,
%
clouds,
%
prec.,
mm/h
press.,
hPa
HPBL,
m
25 february, thu
thu2500:00−15s489591 0.2 1037324
03:00−14ssw599495 0.5 1035401
06:00−12ssw51194100 0.4 1032445
09:00−10sw61193100 1.0 1029465
12:00−7sw71194100 1.0 1026482
15:00−4sw71293100 2.0 1023449
18:00−2sw81594100 0.7 1019414
21:00+1w71297100 1.2 1018327
26 february, fri
fri2600:00+2w51098100 0.0 1017227
03:00+1w41099100 0.2 1018227
06:00+1wnw5998100 0.1 1017257
09:00+1w51199100 0.3 1017293
12:00+2w511100100 0.3 1016309
15:00+2wsw61499100 0.3 1014424
18:00+2w71498100 0.1 1012421
21:00+2wsw81697100 0.4 1011380
27 february, sat
sat2700:00+2w71497100 0.1 1009463
03:00+1w61294100 0.1 1009478
06:00+1w61295100 0.0 1007492
09:00+1w61198100 0.1 1007553
12:00+1w51195100 0.1 1007671
15:00+1w61196100 0.1 1007510
18:00+1wnw61297100 0.1 1006558
21:000wnw61196100 0.2 1007559
28 february, sun
sun2800:000wnw61195100 0.1 1007573
03:00−3nnw4890100 0.4 1009481
06:00−6nnw588891 0.0 1011464
09:00−7nnw478794 0.0 1013499
12:00−6nnw5784100 0.0 1015541
15:00−5nnw5884100 0.0 1016632
18:00−6nnw5988100 0.0 1017555
21:00−7nnw5889100 0.1 1020564
1 march, mon
mon100:00−7nnw359392 0.2 1022364
03:00−7nnw369392 0.3 1023364
06:00−8nnw479285 0.0 1024369
09:00−8n478781 0.1 1026512
12:00−7n468393 0.0 1028604
15:00−6nnw578396 0.0 1028646
18:00−6nw378895 0.0 1029408
21:00−6wnw378897 0.0 1030393